Dublin, Ireland

7:29 AM IST on August 21, 2017 (GMT +0100)
Dublin International

Weather History for EIDW - August, 2013

Change the Weather History Date:

Monday, August 26, 2013

  Actual Average Record
Temperature  
Mean Temperature 56 °F -  
Max Temperature 65 °F 62 °F 68 °F (2008)
Min Temperature 46 °F 49 °F 44 °F (2002)
Degree Days  
Heating Degree Days 10    
Growing Degree Days 6 (Base 50)    
Moisture  
Dew Point 53 °F    
Average Humidity 87    
Maximum Humidity 100    
Minimum Humidity 60    
Precipitation  
Precipitation 0.00 in 0.09 in - ()
Sea Level Pressure  
Sea Level Pressure 30.16 in    
Wind  
Wind Speed 5 mph ()    
Max Wind Speed 9 mph    
Max Gust Speed -    
Visibility 6.7 miles    
Events      
Averages and records for this station are not official NWS values.
T = Trace of Precipitation, MM = Missing Value Source: Averaged Metar Reports

Daily Weather History Graph

Daily Weather History Graph

Search for Another Location

Airport or City:

Trip Planner

Search our weather history database for the weather conditions in past years. The results will help you decide how hot, cold, wet, or windy it might be!

Date:

Astronomy

Aug. 26, 2013 Rise Set
Actual Time 6:23 AM IST 8:28 PM IST
Civil Twilight 5:46 AM IST 9:05 PM IST
Nautical Twilight 4:58 AM IST 9:52 PM IST
Astronomical Twilight 4:03 AM IST 10:47 PM IST
Moon 10:30 PM IST (8/26) 1:09 PM IST (8/26)
Length of Visible Light 15h 19m
Length of Day
14h 04m
Waning Gibbous, 69% of the Moon is Illuminated
Aug 26
Waning Gibbous
Aug 28
Last Quarter
Sep 5
New
Sep 12
First Quarter
Sep 19
Full

Hourly Weather History & Observations

Time (IST) Temp. Windchill Dew Point Humidity Pressure Visibility Wind Dir Wind Speed Gust Speed Precip Events Conditions
12:00 AM 50.0 °F - 50.0 °F 100% 30.18 in 6.2 mi WNW 6.9 mph - N/A   Partly Cloudy
12:30 AM 50.0 °F - 50.0 °F 100% 30.18 in 6.2 mi WNW 6.9 mph - N/A   Partly Cloudy
1:00 AM 50 °F - 50 °F 98% 30.20 in 37 mi West 6.7 mph - -   Scattered Clouds
1:00 AM 50.0 °F - 50.0 °F 100% 30.18 in 6.2 mi West 6.9 mph - N/A   Partly Cloudy
1:30 AM 50.0 °F - 50.0 °F 100% 30.18 in 6.2 mi West 6.9 mph - N/A   Partly Cloudy
2:00 AM 50.0 °F - 50.0 °F 100% 30.18 in 6.2 mi West 6.9 mph - N/A   Partly Cloudy
2:30 AM 48.2 °F - 48.2 °F 100% 30.18 in 6.2 mi WNW 5.8 mph - N/A   Partly Cloudy
3:00 AM 48.2 °F - 48.2 °F 100% 30.18 in 6.2 mi WNW 4.6 mph - N/A   Partly Cloudy
3:30 AM 46.4 °F 43.5 °F 46.4 °F 100% 30.18 in 6.2 mi WNW 5.8 mph - N/A   Partly Cloudy
4:00 AM 46.4 °F 44.3 °F 46.4 °F 100% 30.18 in 6.2 mi WNW 4.6 mph - N/A   Partly Cloudy
4:30 AM 46.4 °F 43.5 °F 46.4 °F 100% 30.18 in 6.2 mi WNW 5.8 mph - N/A   Partly Cloudy
5:00 AM 46.4 °F - 46.4 °F 100% 30.18 in 6.2 mi Variable 1.2 mph - N/A   Mostly Cloudy
5:30 AM 51.8 °F - 51.8 °F 100% 30.18 in 6.2 mi WNW 3.5 mph - N/A   Mostly Cloudy
6:00 AM 51.8 °F - 51.8 °F 100% 30.18 in 6.2 mi West 3.5 mph - N/A   Mostly Cloudy
6:30 AM 53.6 °F - 53.6 °F 100% 30.18 in 6.2 mi Variable 3.5 mph - N/A   Mostly Cloudy
7:00 AM 53 °F - 53 °F 100% 30.20 in 16 mi WNW 6.7 mph - -   Mostly Cloudy
7:00 AM 53.6 °F - 53.6 °F 100% 30.18 in 6.2 mi WNW 5.8 mph - N/A   Mostly Cloudy
7:30 AM 53.6 °F - 53.6 °F 100% 30.18 in 6.2 mi West 4.6 mph - N/A   Mostly Cloudy
8:00 AM 53.6 °F - 53.6 °F 100% 30.18 in 6.2 mi West 5.8 mph - N/A   Mostly Cloudy
8:30 AM 55.4 °F - 55.4 °F 100% 30.18 in 6.2 mi Variable 3.5 mph - N/A   Mostly Cloudy
9:00 AM 55.4 °F - 55.4 °F 100% 30.18 in 6.2 mi Variable 1.2 mph - N/A   Mostly Cloudy
9:30 AM 57.2 °F - 55.4 °F 94% 30.18 in 6.2 mi Variable 3.5 mph - N/A   Mostly Cloudy
10:00 AM 57.2 °F - 55.4 °F 94% 30.18 in 6.2 mi Variable 3.5 mph - N/A   Mostly Cloudy
10:30 AM 59.0 °F - 55.4 °F 88% 30.18 in 6.2 mi Variable 2.3 mph - N/A   Mostly Cloudy
11:00 AM 62.6 °F - 55.4 °F 77% 30.18 in 6.2 mi Variable 3.5 mph - N/A   Mostly Cloudy
11:30 AM 62.6 °F - 53.6 °F 72% 30.18 in 6.2 mi Variable 3.5 mph - N/A   Mostly Cloudy
12:00 PM 64.4 °F - 55.4 °F 73% 30.18 in 6.2 mi Variable 2.3 mph - N/A   Mostly Cloudy
12:30 PM 64.4 °F - 55.4 °F 73% 30.18 in 6.2 mi Variable 3.5 mph - N/A   Mostly Cloudy
1:00 PM 65 °F - 54 °F 60% 30.18 in 25 mi WNW 4.5 mph - -   Mostly Cloudy
1:00 PM 64.4 °F - 53.6 °F 68% 30.18 in 6.2 mi Variable 3.5 mph - N/A   Mostly Cloudy
1:30 PM 64.4 °F - 55.4 °F 73% 30.15 in 6.2 mi Variable 3.5 mph - N/A   Mostly Cloudy
2:00 PM 64.4 °F - 53.6 °F 68% 30.15 in 6.2 mi WNW 4.6 mph - N/A   Mostly Cloudy
2:30 PM 64.4 °F - 55.4 °F 73% 30.15 in 6.2 mi West 4.6 mph - N/A   Mostly Cloudy
3:00 PM 64.4 °F - 57.2 °F 77% 30.15 in 6.2 mi WNW 6.9 mph - N/A   Mostly Cloudy
3:30 PM 64.4 °F - 55.4 °F 73% 30.15 in 6.2 mi NW 4.6 mph - N/A   Mostly Cloudy
4:00 PM 64.4 °F - 55.4 °F 73% 30.15 in 6.2 mi ESE 8.1 mph - N/A   Mostly Cloudy
4:30 PM 62.6 °F - 55.4 °F 77% 30.15 in 6.2 mi ESE 6.9 mph - N/A   Mostly Cloudy
5:00 PM 62.6 °F - 55.4 °F 77% 30.12 in 6.2 mi ESE 5.8 mph - N/A   Mostly Cloudy
5:30 PM 62.6 °F - 55.4 °F 77% 30.12 in 6.2 mi ESE 5.8 mph - N/A   Mostly Cloudy
6:00 PM 62.6 °F - 55.4 °F 77% 30.12 in 6.2 mi ESE 5.8 mph - N/A   Mostly Cloudy
6:30 PM 62.6 °F - 53.6 °F 72% 30.12 in 6.2 mi ESE 4.6 mph - N/A   Mostly Cloudy
7:00 PM 62 °F - 54 °F 69% 30.15 in 19 mi SSE 4.5 mph - -   Mostly Cloudy
7:00 PM 60.8 °F - 53.6 °F 77% 30.12 in 6.2 mi SE 4.6 mph - N/A   Mostly Cloudy
7:30 PM 60.8 °F - 53.6 °F 77% 30.15 in 6.2 mi SW 4.6 mph - N/A   Mostly Cloudy
8:00 PM 59.0 °F - 53.6 °F 82% 30.15 in 6.2 mi WNW 8.1 mph - N/A   Mostly Cloudy
8:30 PM 59.0 °F - 53.6 °F 82% 30.15 in 6.2 mi NW 8.1 mph - N/A   Mostly Cloudy
9:00 PM 57.2 °F - 53.6 °F 88% 30.15 in 6.2 mi WNW 9.2 mph - N/A   Mostly Cloudy
9:30 PM 55.4 °F - 51.8 °F 88% 30.15 in 6.2 mi West 6.9 mph - N/A   Scattered Clouds
10:00 PM 53.6 °F - 50.0 °F 88% 30.15 in 6.2 mi West 5.8 mph - N/A   Scattered Clouds
10:30 PM 50.0 °F - 46.4 °F 87% 30.15 in 6.2 mi West 5.8 mph - N/A   Scattered Clouds
11:00 PM 51.8 °F - 50.0 °F 94% 30.12 in 6.2 mi West 6.9 mph - N/A   Scattered Clouds
11:30 PM 51.8 °F - 50.0 °F 94% 30.15 in 6.2 mi West 8.1 mph - N/A   Scattered Clouds